Weather History for South Bend, IN

Change the Weather History Date:

Saturday, January 14, 2012

  Actual Average Record
Temperature  
Mean Temperature 13 °F 24 °F  
Max Temperature 19 °F 31 °F 60 °F (1928)
Min Temperature 6 °F 17 °F -10 °F (1929)
Degree Days  
Heating Degree Days 52 41  
Month to date heating degree days 476 566  
Since 1 July heating degree days 2519 2957  
Cooling Degree Days 0 0  
Month to date cooling degree days 0 0  
Year to date cooling degree days 0 0  
Moisture  
Dew Point 9 °F    
Average Humidity 72    
Maximum Humidity 83    
Minimum Humidity 61    
Precipitation  
Precipitation T in 0.08 in 0.80 in (1911)
Month to date precipitation 1.07 1.14  
Year to date precipitation 1.07 1.14  
Snow  
Snow T in 0.70 in 6.00 in (1985)
Month to date snowfall 18.6 9.0  
Since 1 July snowfall 24.3 31.5  
Snow Depth 0.00 in    
Sea Level Pressure  
Sea Level Pressure 30.14 in    
Wind  
Wind Speed 7 mph (SW)    
Max Wind Speed 16 mph    
Max Gust Speed 20 mph    
Visibility 8 miles    
Events Snow    
T = Trace of Precipitation, MM = Missing Value Source: NWS Daily Summary

Daily Weather History Graph

Daily Weather History Graph

Search for Another Location

Airport:

Trip Planner

Search our weather history database for the weather conditions in past years. The results will help you decide how hot, cold, wet, or windy it might be!

Date:

Astronomy

Jan. 14, 2012 Rise Set
Actual Time 8:10 AM EST 5:38 PM EST
Civil Twilight 7:39 AM EST 6:08 PM EST
Nautical Twilight 7:05 AM EST 6:43 PM EST
Astronomical Twilight 6:32 AM EST 7:16 PM EST
Moon No Moon Rise 10:49 AM EST (1/14)
Length of Visible Light 10h 29m
Length of Day
9h 27m
Waning Gibbous, 69% of the Moon is Illuminated
Jan 14
Waning Gibbous
Jan 16
Last Quarter
Jan 23
New
Jan 30
First Quarter
Feb 7
Full

Hourly Weather History & Observations

Time (EST) Temp. Windchill Dew Point Humidity Pressure Visibility Wind Dir Wind Speed Gust Speed Precip Events Conditions
12:54 AM 19.0 °F 5.0 °F 12.9 °F 77% 30.06 in 4.0 mi SW 15.0 mph - 0.00 in   Haze
1:54 AM 18.0 °F 4.2 °F 12.9 °F 81% 30.06 in 6.0 mi SW 13.8 mph - 0.00 in Snow Light Snow
2:54 AM 18.0 °F 6.1 °F 12.9 °F 81% 30.07 in 6.0 mi SW 10.4 mph - 0.00 in   Haze
3:54 AM 18.0 °F 6.9 °F 12.0 °F 78% 30.08 in 10.0 mi SW 9.2 mph - N/A   Overcast
4:54 AM 17.1 °F 5.8 °F 12.0 °F 81% 30.08 in 8.0 mi SW 9.2 mph - N/A   Overcast
5:54 AM 17.1 °F 6.6 °F 10.9 °F 77% 30.09 in 10.0 mi SW 8.1 mph - N/A   Overcast
6:04 AM 17.6 °F 6.4 °F 10.4 °F 73% 30.04 in 10.0 mi SW 9.2 mph - N/A   Overcast
6:54 AM 16.0 °F 4.4 °F 10.9 °F 81% 30.10 in 10.0 mi SW 9.2 mph - N/A   Overcast
7:54 AM 16.0 °F 6.3 °F 10.0 °F 77% 30.12 in 10.0 mi SW 6.9 mph - N/A   Overcast
8:54 AM 15.8 °F 5.1 °F 10.4 °F 79% 30.09 in 9.0 mi SW 8.1 mph - N/A   Overcast
9:07 AM 15.8 °F 4.2 °F 10.4 °F 79% 30.09 in 1.5 mi SW 9.2 mph - N/A   Overcast
9:14 AM 15.8 °F 5.1 °F 10.4 °F 79% 30.10 in 8.0 mi SSW 8.1 mph - N/A   Overcast
9:54 AM 16.0 °F 4.4 °F 9.0 °F 74% 30.16 in 4.0 mi SW 9.2 mph - 0.00 in Snow Light Snow
10:14 AM 15.8 °F 5.1 °F 10.4 °F 79% 30.12 in 2.5 mi WSW 8.1 mph - 0.00 in Snow Light Snow
10:26 AM 15.8 °F 5.1 °F 10.4 °F 79% 30.12 in 4.0 mi WSW 8.1 mph - N/A Snow Light Snow
10:54 AM 16.0 °F 5.3 °F 9.0 °F 74% 30.17 in 5.0 mi SW 8.1 mph - 0.00 in Snow Light Snow
11:54 AM 17.1 °F 4.3 °F 9.0 °F 71% 30.16 in 9.0 mi WSW 11.5 mph - 0.00 in   Overcast
12:54 PM 18.0 °F 7.7 °F 9.0 °F 68% 30.15 in 10.0 mi WSW 8.1 mph - N/A   Overcast
1:17 PM 17.6 °F 9.3 °F 8.6 °F 68% 30.10 in 10.0 mi SW 5.8 mph - N/A   Overcast
1:54 PM 18.0 °F 7.7 °F 8.1 °F 65% 30.13 in 10.0 mi WSW 8.1 mph - N/A   Overcast
2:03 PM 19.4 °F 9.5 °F 8.6 °F 63% 30.09 in 10.0 mi WSW 8.1 mph - N/A   Overcast
2:54 PM 19.0 °F 10.0 °F 9.0 °F 65% 30.13 in 10.0 mi SW 6.9 mph - N/A   Overcast
3:54 PM 18.0 °F 8.7 °F 9.0 °F 68% 30.14 in 10.0 mi SW 6.9 mph - N/A   Clear
4:54 PM 18.0 °F 9.8 °F 7.0 °F 62% 30.16 in 10.0 mi SW 5.8 mph - N/A   Clear
5:54 PM 16.0 °F - 7.0 °F 68% 30.19 in 10.0 mi Calm Calm - N/A   Clear
6:54 PM 10.9 °F - 3.9 °F 73% 30.21 in 9.0 mi Calm Calm - N/A   Clear
7:54 PM 10.9 °F - 5.0 °F 77% 30.23 in 9.0 mi Calm Calm - N/A   Clear
8:54 PM 9.0 °F 2.4 °F 3.0 °F 77% 30.25 in 7.0 mi South 3.5 mph - N/A   Clear
9:54 PM 10.0 °F 3.6 °F 3.9 °F 76% 30.27 in 8.0 mi SSW 3.5 mph - N/A   Clear
10:54 PM 10.0 °F 3.6 °F 6.1 °F 84% 30.27 in 8.0 mi South 3.5 mph - N/A   Clear
11:54 PM 7.0 °F 0.1 °F 1.0 °F 77% 30.29 in 7.0 mi South 3.5 mph - N/A   Clear